STARLINK-2655, 48449

Orbit data source: Space-Track

STARLINK-2655, 48449 is a payload satellite owned by SpaceX/Seattle (US) in LEO that was launched on Sun, 09 May 2021 UTC via an FALCON 9 launch vehicle from the Air Force Eastern Test Range (AFETR). Payload-class satellites include a variety of spacecraft equipped with specific instruments for various scientific and technological missions. These include communications satellites like Starlink; space stations such as the ISS; scientific satellites like the Hubble; Earth observation satellites from companies like Planet Labs, Umbra, and HawkEye 360; GPS; miniature CubeSats for education and research; and military/defense satellites.

Loading next visibility...
Identifier
48449, 2021-040X
Orbit
LEO
Country
Flag of USUS
Related business
Manufacturer
SpaceX/Seattle
Mission
Operational Commercial Communications
Bus & Motor
STARLINK, Unknown motor
Mass
260 kg wet, ~248 kg dry
Launch date (UTC)
2021-05-09 (5 years ago)
Launch vehicle
FALCON 9
Launch site
Air Force Eastern Test Range (AFETR)
Object type
Payload
Rocket body
Debris
Shape & HBR
Box + 1 Pan, 10.1 m
Radar Cross Section
13.562 m², Large (>1 m²)

Expand to show TLE details & history
Last TLE update: 2 days ago

TLE from 2 days ago
0 STARLINK-2655
1 48449U 21040X   26170.97542337  .00001181  00000-0  49817-4 0  9996
2 48449  53.1601  62.2766 0001071  85.0933 275.0190 15.31707344282352
Epoch: 2026-06-19T23:24Z
TLE epoch observation values (Epoch: 2026-06-19T23:24:36.579Z)
Latitude
-0.00006°
Longitude
162.92746°
Altitude
471.554 km
Speed
7.632 km/s
True Right ascension
04h 09m 06s
True Declination
0° 00' 00"
Sunlit
Object was in daylight at epoch
Visualization orbit readout
Latitude
Unknown
Longitude
Unknown
Altitude
Unknown
Speed
Unknown
Apparent Right ascension
Unknown
Apparent Declination
Unknown
Sunlit
N/A
Visualization observer readout
Local Sidereal Time
21:25:28
Azimuth
Unknown
Elevation
Unknown
Doppler factor
Unknown
Orbital elements
Apogee altitude
471.708 km
Perigee altitude
470.241 km
Semi-major axis
6,849.112 km
Eccentricity
0.00011
Inclination
53.1601°
RAAN
62.2766°
Arg. of periapsis
85.0933°
True anomaly
275.00677°
Mean anomaly
275.019°
Eccentric anomaly
275.01289°
Mean motion
3.82906 °/min
Orbital period
94.02 mins
BSTAR
0.000049817
Loading maneuver chart data...
Computing Atmospheric mass density...
Loading historical data...
Loading historical data...
Loading historical data...
Loading historical data...
Loading historical data...
Loading historical data...
Loading historical data...

Documentation

Showing up to 5 results
|